Weather History for Athens, OH

Change the Weather History Date:

Sunday, March 17, 2013

  Actual Average (KPKB) Record (KPKB)
Temperature  
Mean Temperature 35 °F 44 °F  
Max Temperature 38 °F 54 °F 79 °F (2012)
Min Temperature 32 °F 33 °F 4 °F (1900)
Degree Days  
Heating Degree Days 30 21  
Month to date heating degree days 408  
Since 1 July heating degree days 4198  
Cooling Degree Days 0 0  
Month to date cooling degree days 0  
Year to date cooling degree days 0  
Moisture  
Dew Point 28 °F    
Average Humidity 73    
Maximum Humidity 84    
Minimum Humidity 61    
Precipitation  
Precipitation 0.00 in 0.13 in 1.01 in (2000)
Month to date precipitation 1.99  
Year to date precipitation 7.64  
Sea Level Pressure  
Sea Level Pressure 30.09 in    
Wind  
Wind Speed 6 mph (NE)    
Max Wind Speed 12 mph    
Max Gust Speed 20 mph    
Visibility 10 miles    
Events Rain    
T = Trace of Precipitation, MM = Missing Value Source: NWS Daily Summary

Daily Weather History Graph

Daily Weather History Graph

Search for Another Location

Airport:

Trip Planner

Search our weather history database for the weather conditions in past years. The results will help you decide how hot, cold, wet, or windy it might be!

Date:

Astronomy

Mar. 17, 2013 Rise Set
Actual Time 7:36 AM EDT 7:38 PM EDT
Civil Twilight 7:10 AM EDT 8:04 PM EDT
Nautical Twilight 6:38 AM EDT 8:36 PM EDT
Astronomical Twilight 6:07 AM EDT 9:07 PM EDT
Moon 10:50 AM EDT (3/17) 12:42 AM EDT (3/17)
Length of Visible Light 12h 54m
Length of Day
12h 01m
Waxing Crescent, 31% of the Moon is Illuminated
Mar 17
Waxing Crescent
Mar 19
First Quarter
Mar 27
Full
Apr 3
Last Quarter
Apr 10
New

Hourly Weather History & Observations

Time (EDT) Temp. Windchill Dew Point Humidity Pressure Visibility Wind Dir Wind Speed Gust Speed Precip Events Conditions
12:15 AM 36.7 °F 32.9 °F 30.9 °F 80% 30.01 in 10.0 mi NW 4.6 mph - N/A   Overcast
12:35 AM 36.5 °F 33.9 °F 30.7 °F 80% 30.01 in 10.0 mi NW 3.5 mph - N/A   Overcast
12:55 AM 36.1 °F 32.3 °F 30.7 °F 81% 30.02 in 10.0 mi NW 4.6 mph - N/A   Overcast
1:15 AM 36.0 °F 32.1 °F 30.2 °F 80% 30.02 in 10.0 mi NW 4.6 mph - N/A   Overcast
1:35 AM 35.8 °F 33.0 °F 30.2 °F 80% 30.02 in 10.0 mi NW 3.5 mph - N/A   Overcast
1:55 AM 35.8 °F 31.9 °F 30.2 °F 80% 30.02 in 10.0 mi NW 4.6 mph - N/A   Overcast
2:15 AM 35.6 °F 31.7 °F 30.2 °F 81% 30.02 in 10.0 mi NNW 4.6 mph - N/A   Overcast
2:35 AM 35.4 °F - 30.2 °F 81% 30.02 in 10.0 mi Calm Calm - N/A   Overcast
2:55 AM 35.2 °F 31.2 °F 30.2 °F 82% 30.01 in 10.0 mi NNW 4.6 mph - N/A   Overcast
3:15 AM 35.1 °F 31.0 °F 30.0 °F 82% 30.01 in 10.0 mi NW 4.6 mph - N/A   Overcast
3:35 AM 35.1 °F 30.1 °F 29.8 °F 81% 30.02 in 10.0 mi NW 5.8 mph - N/A   Overcast
3:55 AM 35.1 °F 32.2 °F 29.8 °F 81% 30.02 in 10.0 mi NNW 3.5 mph - N/A   Overcast
4:15 AM 34.9 °F 29.9 °F 29.8 °F 82% 30.00 in 10.0 mi NNW 5.8 mph - N/A   Overcast
4:35 AM 34.7 °F 28.8 °F 29.8 °F 82% 30.00 in 10.0 mi North 6.9 mph - N/A   Overcast
4:55 AM 34.7 °F 28.8 °F 29.7 °F 82% 30.01 in 10.0 mi North 6.9 mph - N/A   Overcast
5:15 AM 34.7 °F 28.1 °F 29.3 °F 81% 30.01 in 10.0 mi North 8.1 mph - N/A   Overcast
5:35 AM 34.3 °F 28.4 °F 29.7 °F 83% 30.02 in 10.0 mi North 6.9 mph - N/A   Overcast
5:55 AM 34.2 °F 27.5 °F 29.3 °F 82% 30.03 in 10.0 mi NNE 8.1 mph - N/A   Overcast
6:15 AM 34.0 °F 28.8 °F 29.3 °F 83% 30.06 in 10.0 mi North 5.8 mph - N/A   Overcast
6:35 AM 34.0 °F 26.6 °F 28.9 °F 82% 30.08 in 10.0 mi NNE 9.2 mph - N/A   Overcast
6:55 AM 33.8 °F 27.0 °F 28.6 °F 81% 30.09 in 10.0 mi NE 8.1 mph - N/A   Overcast
7:15 AM 33.8 °F 26.4 °F 28.4 °F 81% 30.10 in 10.0 mi NNE 9.2 mph - N/A   Overcast
7:35 AM 33.1 °F 26.1 °F 27.9 °F 81% 30.11 in 10.0 mi North 8.1 mph - N/A   Overcast
7:55 AM 32.9 °F 26.7 °F 27.3 °F 80% 30.13 in 10.0 mi North 6.9 mph - N/A   Overcast
8:15 AM 32.7 °F 26.4 °F 27.1 °F 80% 30.14 in 10.0 mi NNE 6.9 mph - N/A   Overcast
8:35 AM 32.5 °F 24.8 °F 27.1 °F 80% 30.13 in 10.0 mi ENE 9.2 mph - N/A   Overcast
8:55 AM 32.5 °F 26.2 °F 26.8 °F 79% 30.14 in 10.0 mi NE 6.9 mph - N/A   Overcast
9:15 AM 32.5 °F 25.5 °F 25.9 °F 76% 30.14 in 10.0 mi ENE 8.1 mph - N/A   Overcast
9:35 AM 32.5 °F 26.2 °F 25.5 °F 75% 30.14 in 10.0 mi NE 6.9 mph - N/A   Overcast
9:55 AM 32.7 °F 26.4 °F 25.7 °F 75% 30.15 in 10.0 mi NE 6.9 mph - N/A   Overcast
10:15 AM 32.9 °F 26.7 °F 25.3 °F 74% 30.17 in 10.0 mi NNE 6.9 mph - N/A   Overcast
10:35 AM 33.1 °F 25.5 °F 25.5 °F 74% 30.15 in 10.0 mi ENE 9.2 mph - N/A   Overcast
10:55 AM 33.3 °F 25.7 °F 25.3 °F 73% 30.15 in 10.0 mi NE 9.2 mph - N/A   Overcast
11:15 AM 33.4 °F 24.8 °F 25.0 °F 71% 30.15 in 10.0 mi NE 11.5 mph - N/A   Overcast
11:35 AM 34.2 °F 25.7 °F 25.3 °F 70% 30.15 in 10.0 mi NE 11.5 mph - N/A   Overcast
11:55 AM 34.2 °F 26.2 °F 25.3 °F 70% 30.14 in 10.0 mi NE 10.4 mph - N/A   Overcast
12:15 PM 34.9 °F 27.1 °F 25.2 °F 68% 30.14 in 10.0 mi NE 10.4 mph - N/A   Overcast
12:35 PM 34.7 °F 28.1 °F 25.3 °F 69% 30.15 in 10.0 mi NE 8.1 mph - N/A   Overcast
12:55 PM 36.1 °F 28.7 °F 25.9 °F 66% 30.14 in 10.0 mi ENE 10.4 mph - N/A   Overcast
1:15 PM 36.3 °F 29.5 °F 25.3 °F 64% 30.14 in 10.0 mi NE 9.2 mph - N/A   Overcast
1:35 PM 36.1 °F 28.2 °F 25.9 °F 66% 30.14 in 10.0 mi NE 11.5 mph - N/A   Overcast
1:55 PM 36.5 °F 31.0 °F 26.1 °F 66% 30.14 in 10.0 mi NE 6.9 mph - N/A   Overcast
2:15 PM 36.7 °F 32.0 °F 26.1 °F 65% 30.14 in 10.0 mi ENE 5.8 mph - N/A   Overcast
2:35 PM 37.2 °F 31.2 °F 26.6 °F 65% 30.12 in 10.0 mi ENE 8.1 mph - N/A   Overcast
2:55 PM 37.4 °F 32.1 °F 26.1 °F 64% 30.11 in 10.0 mi East 6.9 mph - N/A   Overcast
3:15 PM 37.4 °F 32.1 °F 26.1 °F 64% 30.10 in 10.0 mi ENE 6.9 mph - N/A   Overcast
3:35 PM 37.9 °F 32.1 °F 26.6 °F 64% 30.10 in 10.0 mi NE 8.1 mph - N/A   Overcast
3:55 PM 38.5 °F 33.4 °F 26.8 °F 63% 30.11 in 10.0 mi ENE 6.9 mph - N/A   Overcast
4:15 PM 38.5 °F 32.7 °F 26.4 °F 62% 30.11 in 10.0 mi East 8.1 mph - N/A   Overcast
4:35 PM 38.5 °F 31.1 °F 26.4 °F 62% 30.11 in 10.0 mi ENE 11.5 mph - N/A   Overcast
4:55 PM 38.5 °F 32.7 °F 26.2 °F 61% 30.11 in 10.0 mi East 8.1 mph - N/A   Overcast
5:15 PM 38.5 °F 32.1 °F 26.4 °F 62% 30.11 in 10.0 mi ENE 9.2 mph - N/A   Overcast
5:35 PM 38.7 °F 33.6 °F 26.4 °F 61% 30.11 in 10.0 mi East 6.9 mph - N/A   Overcast
5:55 PM 38.7 °F 32.4 °F 26.4 °F 61% 30.10 in 10.0 mi East 9.2 mph - N/A   Overcast
6:15 PM 38.3 °F 33.2 °F 27.5 °F 65% 30.10 in 10.0 mi East 6.9 mph - N/A   Overcast
6:35 PM 38.3 °F 33.2 °F 26.8 °F 63% 30.10 in 10.0 mi East 6.9 mph - N/A   Overcast
6:55 PM 38.3 °F 32.5 °F 27.0 °F 64% 30.10 in 10.0 mi ENE 8.1 mph - N/A   Overcast
7:15 PM 38.3 °F 33.2 °F 27.1 °F 64% 30.10 in 10.0 mi ENE 6.9 mph - N/A   Overcast
7:35 PM 38.3 °F 31.9 °F 27.0 °F 64% 30.09 in 10.0 mi East 9.2 mph - N/A   Overcast
7:55 PM 38.3 °F 32.5 °F 27.3 °F 65% 30.09 in 10.0 mi ENE 8.1 mph - N/A   Overcast
8:15 PM 38.3 °F 33.9 °F 27.1 °F 64% 30.10 in 10.0 mi ENE 5.8 mph - N/A   Overcast
8:35 PM 38.5 °F 34.1 °F 27.0 °F 63% 30.10 in 10.0 mi ENE 5.8 mph - N/A   Overcast
8:55 PM 38.5 °F 33.4 °F 26.8 °F 63% 30.10 in 10.0 mi ENE 6.9 mph - N/A   Overcast
9:15 PM 38.3 °F 30.9 °F 27.3 °F 65% 30.09 in 10.0 mi East 11.5 mph 19.6 mph N/A   Overcast
9:35 PM 37.8 °F 31.8 °F 27.7 °F 67% 30.09 in 10.0 mi ENE 8.1 mph - N/A   Overcast
9:55 PM 37.0 °F 29.3 °F 28.8 °F 72% 30.09 in 10.0 mi ENE 11.5 mph - N/A Rain Light Rain
10:15 PM 36.7 °F 28.9 °F 29.1 °F 74% 30.09 in 10.0 mi ENE 11.5 mph - N/A   Light Drizzle
10:35 PM 36.7 °F 32.9 °F 29.7 °F 76% 30.09 in 10.0 mi East 4.6 mph - N/A   Overcast
10:55 PM 36.3 °F 31.6 °F 30.9 °F 81% 30.08 in 10.0 mi East 5.8 mph - N/A Rain Light Rain
11:15 PM 36.5 °F 32.7 °F 30.2 °F 78% 30.06 in 10.0 mi ENE 4.6 mph - N/A Rain Light Rain
11:35 PM 36.0 °F 31.1 °F 30.2 °F 80% 30.06 in 10.0 mi ENE 5.8 mph - N/A Rain Light Rain
11:55 PM 35.6 °F 31.7 °F 31.1 °F 84% 30.05 in 10.0 mi ENE 4.6 mph - N/A Rain Rain